Moab, UT

7:07 PM MDT on June 27, 2017 (GMT -0600)
Canyonlands

Weather History for KCNY - August, 2014

Change the Weather History Date:

Thursday, August 14, 2014

  Actual Average Record
Temperature  
Mean Temperature 73 °F 78 °F  
Max Temperature 83 °F 93 °F 105 °F (1958)
Min Temperature 63 °F 63 °F 46 °F (1975)
Degree Days  
Heating Degree Days 0 0  
Month to date heating degree days 0 0  
Since 1 June heating degree days 0 17  
Since 1 July heating degree days 0 0  
Cooling Degree Days 8 13  
Month to date cooling degree days 161 198  
Year to date cooling degree days 1083 991  
Since 1 June cooling degree days 984 927  
Growing Degree Days 22 (Base 50)    
Moisture  
Dew Point 63 °F    
Average Humidity 73    
Maximum Humidity 100    
Minimum Humidity 46    
Precipitation  
Precipitation 0.10 in 0.02 in 1.32 in (1968)
Month to date precipitation 1.13 0.37  
Year to date precipitation 4.88 4.91  
Sea Level Pressure  
Sea Level Pressure 29.98 in    
Wind  
Wind Speed 3 mph (SE)    
Max Wind Speed 12 mph    
Max Gust Speed 13 mph    
Visibility 10 miles    
Events Rain    
T = Trace of Precipitation, MM = Missing Value Source: NWS Daily Summary

Daily Weather History Graph

Daily Weather History Graph

Search for Another Location

Airport or City:

Trip Planner

Search our weather history database for the weather conditions in past years. The results will help you decide how hot, cold, wet, or windy it might be!

Date:

Astronomy

Aug. 14, 2014 Rise Set
Actual Time 6:32 AM MDT 8:14 PM MDT
Civil Twilight 6:03 AM MDT 8:43 PM MDT
Nautical Twilight 5:29 AM MDT 9:17 PM MDT
Astronomical Twilight 4:52 AM MDT 9:53 PM MDT
Moon 10:43 PM MDT (8/14) 11:09 AM MDT (8/14)
Length of Visible Light 14h 39m
Length of Day
13h 42m
Waning Gibbous, 78% of the Moon is Illuminated
Aug 14
Waning Gibbous
Aug 17
Last Quarter
Aug 25
New
Sep 2
First Quarter
Sep 8
Full

Hourly Weather History & Observations

Time (MDT) Temp. Heat Index Dew Point Humidity Pressure Visibility Wind Dir Wind Speed Gust Speed Precip Events Conditions
12:53 AM 64.0 °F - 64.0 °F 100% 29.98 in 8.0 mi SE 9.2 mph - 0.13 in Rain Light Rain
1:33 AM 64.0 °F - 64.0 °F 100% 30.13 in 5.0 mi SE 5.8 mph - 0.08 in Rain Rain
1:53 AM 64.0 °F - 64.0 °F 100% 29.97 in 8.0 mi East 8.1 mph - 0.11 in Rain Light Rain
2:53 AM 64.0 °F - 63.0 °F 96% 29.96 in 10.0 mi ESE 3.5 mph - 0.00 in   Overcast
3:53 AM 64.0 °F - 64.0 °F 100% 29.96 in 10.0 mi ESE 4.6 mph - N/A   Mostly Cloudy
4:20 AM 64.0 °F - 64.0 °F 100% 30.11 in 10.0 mi ESE 4.6 mph - N/A   Overcast
4:53 AM 64.0 °F - 63.0 °F 96% 29.96 in 10.0 mi ESE 3.5 mph - N/A   Mostly Cloudy
5:00 AM 64.0 °F - 63.0 °F 96% 30.11 in 10.0 mi SE 3.5 mph - N/A   Mostly Cloudy
5:53 AM 63.0 °F - 63.0 °F 100% 29.98 in 10.0 mi Calm Calm - N/A   Mostly Cloudy
6:53 AM 64.9 °F - 64.0 °F 97% 30.00 in 10.0 mi Calm Calm - N/A   Overcast
7:34 AM 64.9 °F - 63.0 °F 93% 30.15 in 10.0 mi Calm Calm - N/A   Overcast
7:53 AM 66.0 °F - 63.0 °F 90% 30.02 in 10.0 mi Calm Calm - N/A   Overcast
8:53 AM 66.9 °F - 64.0 °F 90% 30.02 in 10.0 mi SE 3.5 mph - N/A   Overcast
9:53 AM 69.1 °F - 64.0 °F 84% 30.02 in 10.0 mi Calm Calm - N/A   Mostly Cloudy
10:53 AM 73.0 °F - 64.0 °F 73% 30.02 in 10.0 mi Calm Calm - N/A   Overcast
11:53 AM 73.9 °F - 64.0 °F 71% 30.03 in 10.0 mi NW 5.8 mph - N/A   Mostly Cloudy
12:53 PM 77.0 °F - 61.0 °F 58% 30.00 in 10.0 mi NNE 4.6 mph - N/A   Clear
1:53 PM 78.1 °F - 62.1 °F 58% 29.97 in 10.0 mi Variable 3.5 mph - N/A   Partly Cloudy
2:53 PM 80.1 °F 80.7 °F 59.0 °F 48% 29.94 in 10.0 mi WSW 4.6 mph - N/A   Clear
3:53 PM 82.0 °F 82.4 °F 60.1 °F 47% 29.91 in 10.0 mi Calm Calm - N/A   Clear
4:53 PM 82.0 °F 82.1 °F 59.0 °F 45% 29.90 in 10.0 mi Variable 4.6 mph - N/A   Clear
5:53 PM 82.0 °F 82.4 °F 60.1 °F 47% 29.88 in 10.0 mi SSE 4.6 mph - N/A   Clear
6:53 PM 81.0 °F 81.6 °F 60.1 °F 49% 29.88 in 10.0 mi Calm Calm - N/A   Clear
7:53 PM 80.1 °F 81.5 °F 63.0 °F 56% 29.87 in 10.0 mi SSE 3.5 mph - N/A   Clear
8:53 PM 78.1 °F - 64.0 °F 62% 29.89 in 10.0 mi SE 3.5 mph - N/A   Clear
9:53 PM 73.9 °F - 66.9 °F 79% 29.91 in 10.0 mi Calm Calm - N/A   Clear
10:53 PM 73.0 °F - 66.9 °F 81% 29.92 in 10.0 mi Calm Calm - N/A   Clear
11:53 PM 72.0 °F - 64.9 °F 78% 29.92 in 10.0 mi Calm Calm - N/A   Clear